Starlink 37288

operational
NORAD ID: 68552 Int'l Des: 2026-070 Owner: SPXS Country: US Constellation: starlink
LEOCIRCULAR

关于 Starlink 37288

正在加载描述...

实时位置

正在加载3D地球...

即将过境

高度历史

Altitude vs Time

uPlot chart will show altitude changes over time

两行轨道根数

1 68552C 26070K 26093.92409722 -.00216200 00000+0 -26527-3 0 938
2 68552 53.1618 259.4724 0007821 287.1727 65.9586 16.07269022 12
Epoch: Apr 3, 2026 • Age: 30 hours

当前状态

高度 258.7 km
速度 7.75 km/s
星下点 19.44°N, 135.17°E
发射日期 Apr 2, 2026
运行时间 1 days
类型 internet

技术详情

分类 Payload
质量 575.00 kg
干质量 530.00 kg
总质量 575.00 kg
长度 0.30 m
直径 4.10 m
跨度 29.00 m
形状 Box + pan
制造商 SPXS
平台类型 Starlink V2MO
阶段状态 In Orbit
所有者/国家 SPXS/US

大型星座

Loading constellations...